Sitka, AK

11:42 AM AKST on January 19, 2018 (GMT -0900)
Sitka Rocky Gutierrez

Weather History for PASI - September, 2013

Change the Weather History Date:

Tuesday, September 10, 2013

  Actual Average Record
Temperature  
Mean Temperature 56 °F -  
Max Temperature 60 °F 58 °F 66 °F (1949)
Min Temperature 53 °F 48 °F 37 °F (1970)
Degree Days  
Heating Degree Days 9    
Growing Degree Days 6 (Base 50)    
Moisture  
Dew Point 53 °F    
Average Humidity 88    
Maximum Humidity 93    
Minimum Humidity 81    
Precipitation  
Precipitation 0.04 in - - ()
Sea Level Pressure  
Sea Level Pressure 30.03 in    
Wind  
Wind Speed 3 mph (NNW)    
Max Wind Speed 9 mph    
Max Gust Speed -    
Visibility 9 miles    
Events Rain    
Averages and records for this station are not official NWS values.
T = Trace of Precipitation, MM = Missing Value Source: NWS Daily Summary

Daily Weather History Graph

Daily Weather History Graph

Search for Another Location

Airport or City:

Trip Planner

Search our weather history database for the weather conditions in past years. The results will help you decide how hot, cold, wet, or windy it might be!

Date:

Astronomy

Sep. 10, 2013 Rise Set
Actual Time 6:22 AM AKDT 7:32 PM AKDT
Civil Twilight 5:43 AM AKDT 8:11 PM AKDT
Nautical Twilight 4:55 AM AKDT 8:59 PM AKDT
Astronomical Twilight 4:01 AM AKDT 9:52 PM AKDT
Moon 1:09 PM AKDT (9/10) 9:27 PM AKDT (9/10)
Length of Visible Light 14h 27m
Length of Day
13h 09m
Waxing Crescent, 30% of the Moon is Illuminated
Sep 10
Waxing Crescent
Sep 12
First Quarter
Sep 19
Full
Sep 26
Last Quarter
Oct 4
New

Hourly Weather History & Observations

Time (AKDT) Temp. Dew Point Humidity Pressure Visibility Wind Dir Wind Speed Gust Speed Precip Events Conditions
12:53 AM 53.1 °F 50.0 °F 89% 30.09 in 10.0 mi East 4.6 mph - N/A   Overcast
1:53 AM 54.0 °F 51.1 °F 90% 30.09 in 10.0 mi Calm Calm - N/A   Overcast
2:53 AM 54.0 °F 51.1 °F 90% 30.08 in 10.0 mi Calm Calm - N/A   Overcast
3:53 AM 55.9 °F 51.1 °F 84% 30.08 in 10.0 mi Calm Calm - N/A   Overcast
4:53 AM 54.0 °F 51.1 °F 90% 30.08 in 10.0 mi ENE 4.6 mph - N/A   Overcast
5:53 AM 55.0 °F 51.1 °F 86% 30.06 in 10.0 mi NE 3.5 mph - N/A   Overcast
6:53 AM 55.9 °F 51.1 °F 84% 30.04 in 9.0 mi Calm Calm - N/A   Mostly Cloudy
7:53 AM 55.0 °F 51.1 °F 86% 30.05 in 10.0 mi Calm Calm - N/A   Overcast
8:53 AM 55.9 °F 52.0 °F 87% 30.06 in 10.0 mi Calm Calm - 0.00 in Rain Light Rain
9:53 AM 57.0 °F 51.1 °F 81% 30.05 in 10.0 mi Calm Calm - 0.00 in   Overcast
10:53 AM 57.0 °F 52.0 °F 83% 30.04 in 10.0 mi Calm Calm - N/A   Overcast
11:53 AM 57.9 °F 53.1 °F 84% 30.03 in 10.0 mi NNW 6.9 mph - N/A   Overcast
12:53 PM 59.0 °F 53.1 °F 81% 30.03 in 10.0 mi NNW 6.9 mph - N/A   Overcast
1:53 PM 57.9 °F 53.1 °F 84% 30.04 in 9.0 mi NW 6.9 mph - 0.00 in   Overcast
2:53 PM 57.9 °F 53.1 °F 84% 30.02 in 6.0 mi Calm Calm - 0.01 in Rain Light Rain
3:53 PM 57.0 °F 53.1 °F 87% 30.01 in 10.0 mi North 8.1 mph - 0.01 in   Overcast
4:53 PM 57.0 °F 55.0 °F 93% 30.00 in 6.0 mi NNW 6.9 mph - 0.01 in Rain Light Rain
5:01 PM 57.0 °F 54.0 °F 89% 29.99 in 6.0 mi NNW 6.9 mph - 0.00 in Rain Light Rain
5:30 PM 57.0 °F 54.0 °F 89% 29.98 in 8.0 mi NNW 5.8 mph - 0.00 in   Overcast
5:53 PM 57.0 °F 54.0 °F 89% 29.98 in 10.0 mi Calm Calm - 0.00 in   Overcast
6:28 PM 57.0 °F 55.0 °F 93% 29.97 in 8.0 mi North 5.8 mph - 0.00 in Rain Light Rain
6:53 PM 57.0 °F 55.0 °F 93% 29.97 in 10.0 mi NNW 8.1 mph - 0.01 in   Overcast
7:53 PM 57.0 °F 55.0 °F 93% 29.98 in 10.0 mi NNW 9.2 mph - 0.00 in   Overcast
8:53 PM 57.9 °F 55.9 °F 93% 29.99 in 10.0 mi NNW 5.8 mph - 0.00 in   Overcast
9:53 PM 57.9 °F 55.0 °F 90% 29.99 in 10.0 mi NNW 5.8 mph - N/A   Overcast
10:53 PM 59.0 °F 55.9 °F 90% 29.99 in 10.0 mi NW 4.6 mph - N/A   Overcast
11:53 PM 57.9 °F 55.9 °F 93% 30.00 in 10.0 mi NW 8.1 mph - N/A   Overcast